| time (UTC) | temp F | wind direction | speed knots | gust knots | rain 1hr in | rain 24hr in | rain mn in | humidity % | barometer mb |
| 20260902150330 | 86 | 223 | 0.0 | 0.0 | 0.00 | 0.00 | 0.00 | 77 | 1015.7 |
| 20260902145335 | 85 | 249 | 0.0 | 0.0 | 0.00 | 0.00 | 0.00 | 80 | 1015.6 |
| 20260902144340 | 84 | 239 | 0.0 | 0.0 | 0.00 | 0.00 | 0.00 | 82 | 1015.7 |
| 20260902143329 | 83 | 239 | 0.0 | 3.5 | 0.00 | 0.00 | 0.00 | 85 | 1015.5 |
| 20260902142334 | 82 | 252 | 0.9 | 2.6 | 0.00 | 0.00 | 0.00 | 87 | 1015.6 |
| 20260902141339 | 81 | 245 | 0.9 | 1.7 | 0.00 | 0.00 | 0.00 | 87 | 1015.7 |
| 20260902140404 | 81 | 211 | 0.0 | 1.7 | 0.00 | 0.00 | 0.00 | 89 | 1015.8 |
| 20260902135328 | 81 | 243 | 0.0 | 1.7 | 0.00 | 0.00 | 0.00 | 89 | 1015.8 |
| 20260902134334 | 80 | 224 | 0.0 | 0.9 | 0.00 | 0.00 | 0.00 | 89 | 1015.8 |
| 20260902133340 | 80 | 226 | 0.0 | 0.9 | 0.00 | 0.00 | 0.00 | 89 | 1015.7 |
| 20260902132329 | 80 | 238 | 0.0 | 1.7 | 0.00 | 0.00 | 0.00 | 89 | 1015.6 |
| 20260902131335 | 80 | 241 | 0.0 | 1.7 | 0.00 | 0.00 | 0.00 | 89 | 1015.4 |
| 20260902130339 | 80 | 261 | 0.0 | 1.7 | 0.00 | 0.00 | 0.00 | 89 | 1015.2 |
| 20260902125403 | 80 | 199 | 0.9 | 2.6 | 0.00 | 0.00 | 0.00 | 90 | 1015.0 |
| 20260902124328 | 80 | 270 | 0.0 | 3.5 | 0.00 | 0.00 | 0.00 | 90 | 1014.8 |
| 20260902123334 | 79 | 203 | 0.0 | 2.6 | 0.00 | 0.00 | 0.00 | 91 | 1014.6 |
| 20260902122339 | 79 | 190 | 0.0 | 2.6 | 0.00 | 0.00 | 0.00 | 91 | 1014.3 |
| 20260902121328 | 79 | 241 | 0.0 | 1.7 | 0.00 | 0.00 | 0.00 | 91 | 1014.3 |
| 20260902120334 | 79 | 242 | 0.0 | 0.0 | 0.00 | 0.00 | 0.00 | 91 | 1014.4 |
| 20260902115340 | 79 | 224 | 0.0 | 0.0 | 0.00 | 0.00 | 0.00 | 91 | 1014.4 |
| 20260902114327 | 79 | 249 | 0.0 | 1.7 | 0.00 | 0.00 | 0.00 | 90 | 1014.4 |
| 20260902113329 | 79 | 249 | 0.0 | 0.9 | 0.00 | 0.00 | 0.00 | 90 | 1014.5 |
| 20260902112335 | 79 | 255 | 0.0 | 1.7 | 0.00 | 0.00 | 0.00 | 90 | 1014.4 |
| 20260902111339 | 79 | 270 | 0.0 | 1.7 | 0.00 | 0.00 | 0.00 | 90 | 1014.4 |
| 20260902110328 | 80 | 253 | 0.0 | 0.9 | 0.00 | 0.00 | 0.00 | 90 | 1014.3 |
| 20260902105333 | 80 | 233 | 0.0 | 0.9 | 0.00 | 0.00 | 0.00 | 90 | 1014.3 |
| 20260902104338 | 79 | 218 | 0.0 | 2.6 | 0.00 | 0.00 | 0.00 | 89 | 1014.2 |
| 20260902103343 | 80 | 150 | 0.0 | 2.6 | 0.00 | 0.00 | 0.00 | 89 | 1014.2 |
| 20260902102328 | 80 | 257 | 0.0 | 2.6 | 0.00 | 0.00 | 0.00 | 89 | 1014.2 |
| 20260902101333 | 80 | 234 | 0.0 | 0.0 | 0.00 | 0.00 | 0.00 | 88 | 1014.1 |
| 20260902100359 | 80 | 251 | 0.0 | 1.7 | 0.00 | 0.00 | 0.00 | 88 | 1014.1 |
| 20260902095327 | 80 | 215 | 0.0 | 0.9 | 0.00 | 0.00 | 0.00 | 88 | 1014.1 |
| 20260902094333 | 80 | 213 | 0.0 | 3.5 | 0.00 | 0.00 | 0.00 | 88 | 1014.2 |
| 20260902093338 | 80 | 197 | 0.0 | 2.6 | 0.00 | 0.00 | 0.00 | 87 | 1014.1 |
| 20260902092343 | 80 | 239 | 0.9 | 2.6 | 0.00 | 0.00 | 0.00 | 87 | 1014.0 |
| 20260902091327 | 80 | 168 | 0.0 | 2.6 | 0.00 | 0.00 | 0.00 | 87 | 1014.1 |
| 20260902090332 | 80 | 221 | 0.0 | 3.5 | 0.00 | 0.00 | 0.00 | 87 | 1014.1 |
| 20260902085359 | 80 | 220 | 0.0 | 2.6 | 0.00 | 0.00 | 0.00 | 87 | 1014.0 |
| 20260902084326 | 80 | 247 | 0.0 | 2.6 | 0.00 | 0.00 | 0.00 | 87 | 1014.1 |
| 20260902083329 | 80 | 195 | 0.0 | 3.5 | 0.00 | 0.00 | 0.00 | 87 | 1014.1 |
| 20260902082335 | 80 | 257 | 0.0 | 0.9 | 0.00 | 0.00 | 0.00 | 87 | 1014.1 |
| 20260902081339 | 80 | 280 | 0.0 | 1.7 | 0.00 | 0.00 | 0.00 | 87 | 1014.1 |
| 20260902080341 | 80 | 281 | 0.0 | 0.0 | 0.00 | 0.00 | 0.00 | 86 | 1014.2 |
| 20260902075326 | 80 | 243 | 0.0 | 0.9 | 0.00 | 0.00 | 0.00 | 87 | 1014.2 |
| 20260902074353 | 80 | 262 | 0.0 | 0.9 | 0.00 | 0.00 | 0.00 | 87 | 1014.2 |
| 20260902073354 | 80 | 222 | 0.0 | 0.9 | 0.00 | 0.00 | 0.00 | 86 | 1014.3 |
| 20260902072359 | 80 | 222 | 0.0 | 0.0 | 0.00 | 0.00 | 0.00 | 86 | 1014.3 |
| 20260902071327 | 80 | 222 | 0.0 | 0.9 | 0.00 | 0.00 | 0.00 | 86 | 1014.4 |
| 20260902070328 | 80 | 235 | 0.0 | 0.9 | 0.00 | 0.00 | 0.00 | 85 | 1014.3 |
| 20260902065354 | 80 | 219 | 0.0 | 1.7 | 0.00 | 0.00 | 0.00 | 86 | 1014.4 |
| 20260902064339 | 79 | 234 | 0.0 | 1.7 | 0.00 | 0.00 | 0.00 | 86 | 1014.3 |
| 20260902063340 | 78 | 214 | 0.0 | 0.9 | 0.00 | 0.00 | 0.00 | 85 | 1014.4 |
| 20260902062325 | 78 | 343 | 0.0 | 0.0 | 0.00 | 0.00 | 0.00 | 86 | 1014.4 |
| 20260902061332 | 78 | 343 | 0.0 | 0.0 | 0.00 | 0.00 | 0.00 | 88 | 1014.3 |
| 20260902060355 | 78 | 343 | 0.0 | 0.0 | 0.00 | 0.00 | 0.00 | 88 | 1014.4 |
| 20260902055344 | 78 | 343 | 0.0 | 0.0 | 0.00 | 0.00 | 0.00 | 88 | 1014.5 |
| 20260902054330 | 78 | 343 | 0.0 | 0.0 | 0.00 | 0.00 | 0.00 | 87 | 1014.5 |
| 20260902053333 | 78 | 343 | 0.0 | 0.0 | 0.00 | 0.00 | 0.00 | 87 | 1014.4 |
| 20260902052338 | 78 | 343 | 0.0 | 0.0 | 0.00 | 0.00 | 0.00 | 87 | 1014.5 |
| 20260902051343 | 79 | 343 | 0.0 | 0.0 | 0.00 | 0.00 | 0.00 | 86 | 1014.4 |
| 20260902050326 | 79 | 343 | 0.0 | 0.0 | 0.00 | 0.00 | 0.00 | 86 | 1014.4 |
| 20260902045330 | 79 | 343 | 0.0 | 0.0 | 0.00 | 0.00 | 0.00 | 86 | 1014.3 |
| 20260902044339 | 79 | 343 | 0.0 | 0.0 | 0.00 | 0.00 | 0.00 | 85 | 1014.3 |
| 20260902043400 | 79 | 343 | 0.0 | 0.0 | 0.00 | 0.00 | 0.00 | 85 | 1014.4 |
| 20260902042326 | 79 | 343 | 0.0 | 0.0 | 0.00 | 0.00 | 0.00 | 85 | 1014.5 |
| 20260902041331 | 79 | 343 | 0.0 | 0.0 | 0.00 | 0.00 | 0.00 | 84 | 1014.7 |
| 20260902040336 | 80 | 343 | 0.0 | 0.0 | 0.00 | 0.00 | 0.00 | 83 | 1014.8 |
| 20260902035341 | 80 | 343 | 0.0 | 0.0 | 0.00 | 0.00 | 0.00 | 82 | 1014.6 |
| 20260902034324 | 80 | 343 | 0.0 | 0.0 | 0.00 | 0.00 | 0.00 | 82 | 1014.5 |
| 20260902033327 | 80 | 343 | 0.0 | 0.0 | 0.00 | 0.00 | 0.00 | 82 | 1014.4 |
| 20260902032339 | 80 | 343 | 0.0 | 0.0 | 0.00 | 0.00 | 0.00 | 80 | 1014.3 |
| 20260902031345 | 81 | 343 | 0.0 | 0.0 | 0.00 | 0.00 | 0.00 | 81 | 1014.3 |
| 20260902030328 | 81 | 343 | 0.0 | 0.0 | 0.00 | 0.00 | 0.00 | 80 | 1014.2 |
| 20260902025333 | 81 | 343 | 0.0 | 0.0 | 0.00 | 0.00 | 0.00 | 79 | 1014.2 |
| 20260902024339 | 81 | 343 | 0.0 | 0.0 | 0.00 | 0.00 | 0.00 | 79 | 1014.2 |
| 20260902023403 | 81 | 343 | 0.0 | 0.9 | 0.00 | 0.00 | 0.00 | 80 | 1014.2 |
| 20260902022326 | 82 | 345 | 0.9 | 1.7 | 0.00 | 0.00 | 0.00 | 77 | 1014.0 |
| 20260902021336 | 83 | 46 | 0.0 | 0.9 | 0.00 | 0.00 | 0.00 | 76 | 1013.9 |
| 20260902020325 | 83 | 46 | 0.0 | 0.0 | 0.00 | 0.00 | 0.00 | 75 | 1013.7 |
| 20260902015330 | 84 | 47 | 0.0 | 0.0 | 0.00 | 0.00 | 0.00 | 71 | 1013.4 |
| 20260902014334 | 84 | 46 | 0.0 | 0.0 | 0.00 | 0.00 | 0.00 | 71 | 1013.3 |
| 20260902013342 | 84 | 46 | 0.0 | 0.0 | 0.00 | 0.00 | 0.00 | 71 | 1013.2 |
| 20260902012347 | 85 | 46 | 0.0 | 0.0 | 0.00 | 0.00 | 0.00 | 70 | 1013.1 |
| 20260902011353 | 85 | 114 | 0.0 | 0.0 | 0.00 | 0.00 | 0.00 | 70 | 1013.2 |
| 20260902010336 | 85 | 114 | 0.0 | 0.0 | 0.00 | 0.00 | 0.00 | 70 | 1013.1 |
| 20260902005342 | 85 | 114 | 0.0 | 0.9 | 0.00 | 0.00 | 0.00 | 69 | 1013.0 |
| 20260902004347 | 86 | 87 | 0.0 | 0.9 | 0.00 | 0.00 | 0.00 | 69 | 1012.9 |
| 20260902003329 | 86 | 87 | 0.0 | 0.9 | 0.00 | 0.00 | 0.00 | 68 | 1012.9 |
| 20260902002354 | 87 | 10 | 0.0 | 2.6 | 0.00 | 0.00 | 0.00 | 67 | 1013.0 |
| 20260902001339 | 87 | 41 | 0.0 | 0.9 | 0.00 | 0.00 | 0.00 | 67 | 1013.0 |
| 20260902000341 | 88 | 66 | 0.9 | 3.5 | 0.00 | 0.00 | 0.00 | 65 | 1012.9 |
| 20260901235330 | 89 | 87 | 1.7 | 2.6 | 0.00 | 0.00 | 0.00 | 60 | 1012.9 |
| 20260901234336 | 90 | 109 | 0.9 | 1.7 | 0.00 | 0.00 | 0.00 | 56 | 1012.6 |
| 20260901233337 | 90 | 103 | 0.0 | 1.7 | 0.00 | 0.00 | 0.00 | 55 | 1012.8 |
| 20260901232342 | 91 | 116 | 0.9 | 1.7 | 0.00 | 0.00 | 0.00 | 53 | 1012.7 |
| 20260901231325 | 91 | 56 | 0.0 | 1.7 | 0.00 | 0.00 | 0.00 | 52 | 1012.7 |
| 20260901230329 | 91 | 152 | 0.0 | 0.9 | 0.00 | 0.00 | 0.00 | 54 | 1012.7 |
| 20260901225355 | 91 | 89 | 0.0 | 0.9 | 0.00 | 0.00 | 0.00 | 55 | 1012.8 |
| 20260901224323 | 91 | 86 | 0.0 | 2.6 | 0.00 | 0.00 | 0.00 | 55 | 1012.7 |
| 20260901223327 | 91 | 136 | 0.0 | 0.9 | 0.00 | 0.00 | 0.00 | 54 | 1012.9 |
| 20260901222332 | 91 | 116 | 0.9 | 3.5 | 0.00 | 0.00 | 0.00 | 55 | 1012.9 |
| 20260901221335 | 91 | 57 | 0.0 | 4.3 | 0.00 | 0.00 | 0.00 | 57 | 1013.0 |
| 20260901220340 | 92 | 360 | 0.0 | 0.9 | 0.00 | 0.00 | 0.00 | 56 | 1013.1 |
| 20260901215326 | 92 | 311 | 0.0 | 1.7 | 0.00 | 0.00 | 0.00 | 56 | 1013.1 |
| 20260901214331 | 92 | 14 | 0.0 | 1.7 | 0.00 | 0.00 | 0.00 | 57 | 1013.1 |
| 20260901213337 | 93 | 58 | 0.9 | 3.5 | 0.00 | 0.00 | 0.00 | 55 | 1013.2 |
| 20260901212342 | 93 | 354 | 0.0 | 3.5 | 0.00 | 0.00 | 0.00 | 54 | 1013.1 |
| 20260901211326 | 92 | 345 | 0.9 | 4.3 | 0.00 | 0.00 | 0.00 | 55 | 1013.2 |
| 20260901210332 | 92 | 133 | 0.0 | 2.6 | 0.00 | 0.00 | 0.00 | 54 | 1013.2 |
| 20260901205338 | 93 | 14 | 1.7 | 5.2 | 0.00 | 0.00 | 0.00 | 54 | 1013.4 |
| 20260901204323 | 92 | 352 | 0.0 | 3.5 | 0.00 | 0.00 | 0.00 | 57 | 1013.6 |
| 20260901203326 | 92 | 18 | 0.0 | 1.7 | 0.00 | 0.00 | 0.00 | 56 | 1013.7 |
| 20260901202336 | 92 | 101 | 0.0 | 1.7 | 0.00 | 0.00 | 0.00 | 56 | 1013.8 |
| 20260901201342 | 92 | 350 | 0.9 | 5.2 | 0.00 | 0.00 | 0.00 | 56 | 1014.0 |
| 20260901200325 | 92 | 16 | 0.0 | 3.5 | 0.00 | 0.00 | 0.00 | 56 | 1014.2 |
| 20260901195329 | 92 | 353 | 0.0 | 1.7 | 0.00 | 0.00 | 0.00 | 57 | 1014.3 |
| 20260901194335 | 92 | 112 | 1.7 | 4.3 | 0.00 | 0.00 | 0.00 | 59 | 1014.4 |
| 20260901193337 | 92 | 345 | 0.0 | 2.6 | 0.00 | 0.00 | 0.00 | 60 | 1014.4 |
| 20260901192343 | 92 | 97 | 0.0 | 1.7 | 0.00 | 0.00 | 0.00 | 60 | 1014.4 |
| 20260901191333 | 92 | 60 | 1.7 | 6.1 | 0.00 | 0.00 | 0.00 | 61 | 1014.4 |
| 20260901190336 | 92 | 120 | 0.9 | 3.5 | 0.00 | 0.00 | 0.00 | 62 | 1014.6 |
| 20260901185338 | 92 | 46 | 1.7 | 3.5 | 0.00 | 0.00 | 0.00 | 59 | 1014.6 |
| 20260901184342 | 91 | 340 | 0.0 | 2.6 | 0.00 | 0.00 | 0.00 | 62 | 1014.8 |
| 20260901183326 | 91 | 10 | 1.7 | 4.3 | 0.00 | 0.00 | 0.00 | 62 | 1015.0 |
| 20260901182332 | 91 | 5 | 0.0 | 3.5 | 0.00 | 0.00 | 0.00 | 62 | 1015.0 |
| 20260901181358 | 90 | 10 | 0.9 | 3.5 | 0.00 | 0.00 | 0.00 | 62 | 1015.2 |
| 20260901180339 | 91 | 147 | 0.9 | 5.2 | 0.00 | 0.00 | 0.00 | 63 | 1015.5 |
| 20260901175330 | 90 | 324 | 1.7 | 5.2 | 0.00 | 0.00 | 0.00 | 65 | 1015.6 |
| 20260901174336 | 90 | 360 | 0.0 | 3.5 | 0.00 | 0.00 | 0.00 | 65 | 1016.0 |
| 20260901173336 | 90 | 18 | 0.0 | 4.3 | 0.00 | 0.00 | 0.00 | 65 | 1016.2 |
| 20260901172340 | 90 | 37 | 0.9 | 4.3 | 0.00 | 0.00 | 0.00 | 67 | 1016.3 |
| 20260901171328 | 90 | 43 | 2.6 | 5.2 | 0.00 | 0.00 | 0.00 | 66 | 1016.4 |
| 20260901170331 | 89 | 48 | 0.0 | 4.3 | 0.00 | 0.00 | 0.00 | 69 | 1016.4 |
| 20260901165336 | 88 | 345 | 0.9 | 2.6 | 0.00 | 0.00 | 0.00 | 70 | 1016.5 |
| 20260901164327 | 88 | 65 | 2.6 | 5.2 | 0.00 | 0.00 | 0.00 | 71 | 1016.4 |
| 20260901163327 | 87 | 65 | 1.7 | 4.3 | 0.00 | 0.00 | 0.00 | 71 | 1016.5 |
| 20260901162331 | 87 | 5 | 0.9 | 3.5 | 0.00 | 0.00 | 0.00 | 72 | 1016.7 |
| 20260901161335 | 87 | 315 | 0.0 | 2.6 | 0.00 | 0.00 | 0.00 | 73 | 1016.7 |
| 20260901160339 | 87 | 5 | 0.0 | 2.6 | 0.00 | 0.00 | 0.00 | 73 | 1016.5 |
| 20260901155324 | 87 | 360 | 0.9 | 2.6 | 0.00 | 0.00 | 0.00 | 73 | 1016.5 |
| 20260901154326 | 87 | 347 | 0.9 | 3.5 | 0.00 | 0.00 | 0.00 | 72 | 1016.4 |
| 20260901153333 | 87 | 338 | 1.7 | 5.2 | 0.00 | 0.00 | 0.00 | 72 | 1016.5 |
| 20260901152338 | 87 | 286 | 1.7 | 7.8 | 0.00 | 0.00 | 0.00 | 74 | 1016.4 |
| 20260901151343 | 86 | 15 | 0.9 | 4.3 | 0.00 | 0.00 | 0.00 | 75 | 1016.5 |